Regional Weather Roundup
Issued by NWS

Home | Current Version | Previous Version | Text Only | Print | Product List | Glossary Off
Versions: 1 2 3 4 5 6 7 8 9 10 11 12 13 14 15 16 17 18 19 20 21 22 23 24 25 26 27 28 29 30 31 32 33 34 35 36 37 38 39 40 41 42 43 44 45 46 47 48 49 50

000
ASUS43 KLMK 122302
RWRKY
KENTUCKY REGIONAL WEATHER ROUNDUP
NATIONAL WEATHER SERVICE LOUISVILLE KY
600 PM EST FRI FEB 12 2016

NOTE "FAIR" INDICATES FEW OR NO CLOUDS BELOW 12,000 FEET
WITH NO SIGNIFICANT WEATHER AND/OR OBSTRUCTIONS TO VISIBILITY.

KYZ001>023-026-027-061>063-070>075-130000-
WESTERN AND SOUTH CENTRAL KENTUCKY

CITY           SKY/WX    TMP DP  RH WIND       PRES   REMARKS
PADUCAH        MOCLDY    36  23  59 N9        30.32R WCI  29
HENDERSON      CLOUDY    30  21  69 W17       30.30R WCI  18
OWENSBORO      CLOUDY    31  25  78 NW9G18    30.28R WCI  23
HOPKINSVILLE   CLOUDY    35  24  63 NW8       30.28R WCI  29
BOWLING GREEN  CLOUDY    33  24  69 NW12      30.27R WCI  24
GLASGOW        NOT AVBL
$$

KYZ024-025-028>034-038-045-046-053-130000-
NORTH CENTRAL KENTUCKY

CITY           SKY/WX    TMP DP  RH WIND       PRES   REMARKS
LOUISVILLE/SDF FLURRIES  31  19  61 W21       30.22R WCI  18
LOUISVILLE/LOU CLOUDY    31  19  61 W13G23    30.21R WCI  21
FORT KNOX      MIX PCPN  29  21  70 W16       30.20R WCI  18
$$

KYZ035>037-039>044-047>052-055>060-089>105-130000-
NORTHEAST KENTUCKY

CITY           SKY/WX    TMP DP  RH WIND       PRES   REMARKS
LEXINGTON      CLOUDY    30  20  66 W17G23    30.14R WCI  18
COVINGTON      LGT SNOW  27  18  69 W16       30.12R WCI  15
FRANKFORT      CLOUDY    30  18  60 W10G21    30.16R WCI  21
$$

KYZ054-064>069-076>088-106>120-130000-
SOUTHEAST KENTUCKY

CITY           SKY/WX    TMP DP  RH WIND       PRES   REMARKS
JACKSON        CLOUDY    29  20  69 SW7       30.09R WCI  22
LONDON         CLOUDY    30  22  72 W13       30.14R WCI  20
SOMERSET       NOT AVBL
MIDDLESBORO    CLOUDY    32  26  77 NW6       30.15R WCI  26
MONTICELLO     CLOUDY    31  25  78 W10G20    30.21R WCI  22
$$




USA.gov is the U.S. government's official web portal to all federal, state and local government web resources and services.